Location: Losili
(4.4086°N, 32.7049°E)
Time: 03:07:22
(UTC+00:00)

Ariane H10 - Pass Details

Date: 18 September 2019
Orbit: 513 x 35450 km, 8.1° (Epoch: 17 October)

Event Time Altitude Azimuth Distance (km) Brightness Sun altitude
Rises 16:30:52 0° 260° (W) 18,455 11.3 -11.7°
Reaches altitude 10° 17:00:58 10° 257° (WSW) 9,792 9.2 -19.2°
Maximum altitude 17:22:28 60° 180° (S) 1,435 3.7 -24.5°
Enters shadow 17:23:57 46° 128° (SE) 1,366 3.4 -24.9°
